Flag for United Kingdom Weather past 2 weeks in Exeter, England, United Kingdom

Now
46 °F

Passing clouds.


Feels Like: 40 °F
Forecast: N/A
Wind: 14 mph from Southwest

Location: Exeter Airport

Current Time: Feb 27, 2015 at 11:46:26 PM

Latest Report: Feb 27, 2015 at 11:20 PM


Visibility: N/A

Pressure: 30.01 "Hg

Humidity: 82%

Dew point: 41 °F

Location of ExeterLocation

Historic Weather in Exeter — Graph

°F

Exeter temperature yesterday

Maximum temperature yesterday: 52 °F (at 8:20 AM)
Minimum temperature yesterday: 36 °F (at 11:20 PM)
Average temperature yesterday: 46 °F

Past Weeks' High & Low Weather Summary

 TemperatureHumidityPressure
High54 °F (Feb 25, 12:20 PM)100% (Feb 16, 6:50 AM)30.77 "Hg (Feb 16, 6:50 AM)
Low30 °F (Feb 18, 8:20 AM)50% (Feb 17, 2:50 PM)29.30 "Hg (Feb 23, 1:20 PM)
Average44 °F82%29.91 "Hg
* Reported Feb 12 10:20 PM — Feb 27 10:20 PM, Exeter, Weather by CustomWeather, © 2015

Note: Actual official high and low records may vary slightly from our data, if they occured in-between our weather recording intervals... More about our weather records

Advertising

Exeter weather history for previous 24 hours

 ConditionsComfort  
Time TempWeatherWind HumidityBarometerVisibility
10:20 PM
Fri, Feb 27
45 °FPassing clouds.10 mph87%30.01 "HgN/A
9:50 PM43 °FPassing clouds.12 mph87%30.04 "HgN/A
9:20 PM43 °FPassing clouds.8 mph87%30.07 "HgN/A
8:50 PM43 °FPassing clouds.9 mph87%30.07 "HgN/A
8:20 PM43 °FPassing clouds.8 mph81%30.07 "HgN/A
7:50 PM43 °FPassing clouds.10 mph81%30.09 "HgN/A
7:20 PM45 °FPassing clouds.12 mph76%30.09 "HgN/A
6:50 PM45 °FClear.9 mph76%30.09 "Hg10 mi
6:20 PM45 °FClear.10 mph76%30.09 "Hg10 mi
5:50 PM45 °FPassing clouds.8 mph71%30.09 "HgN/A
5:20 PM46 °FScattered clouds.10 mph66%30.12 "HgN/A
4:50 PM46 °FPassing clouds.12 mph66%30.12 "HgN/A
4:20 PM46 °FPassing clouds.10 mph66%30.12 "HgN/A
3:50 PM48 °FPassing clouds.9 mph54%30.12 "HgN/A
3:20 PM48 °FPassing clouds.8 mph54%30.12 "HgN/A
2:50 PM48 °FPassing clouds.13 mph58%30.12 "HgN/A
2:20 PM50 °FPassing clouds.14 mph54%30.15 "HgN/A
1:50 PM48 °FPassing clouds.12 mph54%30.15 "HgN/A
1:20 PM50 °FPassing clouds.12 mph50%30.15 "HgN/A
12:50 PM48 °FPassing clouds.12 mph62%30.15 "HgN/A
12:20 PM48 °FPassing clouds.13 mph58%30.15 "HgN/A
11:50 AM48 °FPassing clouds.14 mph58%30.18 "HgN/A
11:20 AM46 °FPassing clouds.14 mph66%30.18 "HgN/A
10:50 AM45 °FPassing clouds.15 mph71%30.18 "HgN/A
10:20 AM43 °FPassing clouds.6 mph76%30.18 "HgN/A
9:50 AM41 °FSunny.5 mph81%30.18 "Hg10 mi
9:20 AM37 °FSunny.1 mph87%30.18 "Hg10 mi
8:50 AM36 °FSunny.6 mph87%30.18 "Hg10 mi
8:20 AM36 °FSunny.3 mph87%30.15 "Hg10 mi
7:50 AM34 °FPassing clouds.1 mph87%30.15 "HgN/A
7:20 AM32 °FPassing clouds.6 mph93%30.15 "HgN/A
6:50 AM32 °FClear.2 mph93%30.15 "Hg10 mi
6:20 AM32 °FClear.2 mph93%30.15 "Hg10 mi
1:20 AM37 °FPassing clouds.No wind81%30.09 "HgN/A
12:50 AM37 °FPassing clouds.1 mph81%30.09 "HgN/A
12:20 AM37 °FPassing clouds.5 mph81%30.09 "HgN/A
11:50 PM
Thu, Feb 26
36 °FClear.3 mph81%30.09 "Hg10 mi
11:20 PM36 °FClear.1 mph81%30.09 "Hg10 mi
Weather by CustomWeather, © 2015

See weather overviewHow to use our weather pages